"Pseudo-MPEC" for CAD8PW2

Created 2024 Aug 16 6:22:03 UT using Find_Orb

Click here for an explanation of pseudo-MPECs

 
 Astrometry: 
     CAD8PW2 ZC2024 04 03.26842711 57 59.68 -14 46 20.1    ~7K47 20.8 rWNEOCPI41
     CAD8PW2  C2024 04 03.38049311 56 56.528-14 50 32.82   ~4BEM 21.22GVNEOCPF52
     CAD8PW2  C2024 04 03.39350011 56 49.084-14 51 02.76   ~4BEM 20.85GVNEOCPF52
     CAD8PW2*1C2024 04 04.20232511 49 09.440-15 21 20.38   ~4477 21.10GVNEOCPG96
     CAD8PW2 1C2024 04 04.20792111 49 06.186-15 21 33.59   ~4477 20.59GVNEOCPG96
     CAD8PW2 1C2024 04 04.21352211 49 02.942-15 21 45.68   ~4477 21.24GVNEOCPG96
     CAD8PW2 1C2024 04 04.21911911 48 59.706-15 21 57.82   ~4477 20.49GVNEOCPG96
     CAD8PW2 KC2024 04 04.25198511 48 40.700-15 23 11.70   ~447q       VNEOCPI52
     CAD8PW2 KC2024 04 04.25411511 48 39.480-15 23 15.60   ~447q 21.12GVNEOCPI52
     CAD8PW2 KC2024 04 04.25624611 48 38.240-15 23 20.90   ~447q 21.46GVNEOCPI52
     CAD8PW2 KC2024 04 04.25837711 48 37.010-15 23 25.50   ~447q 20.93GVNEOCPI52
     CAD8PW2 |C2024 04 05.10300011 40 29.990-15 53 52.40   ~453q 20.9 GVNEOCP807
     CAD8PW2 |C2024 04 05.10842011 40 26.810-15 54 04.00   ~453q 20.9 GVNEOCP807
     CAD8PW2 |C2024 04 05.11392011 40 23.590-15 54 15.60   ~453q 21.0 GVNEOCP807
     CAD8PW2 KC2024 04 05.21629211 39 24.167-15 58 07.50   ~455b 21.09GVNEOCPI52
     CAD8PW2 KC2024 04 05.21913711 39 22.525-15 58 14.70   ~455b 20.84GVNEOCPI52
     CAD8PW2 KC2024 04 05.22196911 39 20.869-15 58 20.53   ~455b 21.07GVNEOCPI52
     CAD8PW2 KC2024 04 05.22479511 39 19.220-15 58 26.47   ~455b 21.21GVNEOCPI52
     CAD8PW2  C2024 04 05.22906911 39 16.640-15 58 35.94   ~456M 21.0 GVNEOCPH01
     CAD8PW2  C2024 04 05.23340211 39 14.080-15 58 44.92   ~456M 21.3 GVNEOCPH01
     CAD8PW2  C2024 04 05.24633611 39 06.516-15 59 12.69   ~456M 20.9 GVNEOCPH01
     CAD8PW2 KC2024 04 05.25003211 39 04.354-15 59 20.71   ~456M 21.1 GVNEOCPH01
     CAD8PW2 |C2024 04 06.01903011 31 36.160-16 25 56.60   ~461M 20.7 GVNEOCP807
     CAD8PW2 |C2024 04 06.02233011 31 34.240-16 26 02.90   ~461M 20.6 GVNEOCP807
     CAD8PW2 |C2024 04 06.02563011 31 32.250-16 26 10.10   ~461M 20.4 GVNEOCP807
     CAD8PW2 IC2024 04 06.88325311 23 07.93 -16 55 10.4    ~46M7 20.3 GXNEOCPL01
     CAD8PW2 KC2024 04 06.88745911 23 05.43 -16 55 18.7    ~46M7 20.8 GXNEOCPL01
     CAD8PW2 KC2024 04 06.89166611 23 02.93 -16 55 27.0    ~46M7 20.6 GXNEOCPL01
     CAD8PW2 ZC2024 04 07.25476911 19 28.92 -17 07 11.2    ~7K47 20.6 rWNEOCPI41
     CAD8PW2 KC2024 04 08.31955311 09 00.146-17 40 08.80   ~488M 21.1 GVNEOCPH01
     CAD8PW2 KC2024 04 08.32350811 08 57.796-17 40 16.02   ~488M 21.1 GVNEOCPH01
     CAD8PW2 KC2024 04 08.33439011 08 51.336-17 40 35.35   ~488M 21.2 GVNEOCPH01
     CAD8PW2 KC2024 04 08.34026211 08 47.850-17 40 45.69   ~488M 21.0 GVNEOCPH01
     CAD8PW2 1C2024 04 09.51640 10 57 16.28 -18 14 08.3    ~4C0b       VNEOCPQ62
     CAD8PW2 1C2024 04 09.52624 10 57 10.49 -18 14 24.8    ~4C0b 20.8 GVNEOCPQ62
     CAD8PW2 KC2024 04 11.19007910 41 03.437-18 56 50.39   ~4B5M 21.19GVNEOCPI52
     CAD8PW2 KC2024 04 11.19388610 41 01.291-18 56 54.92   ~4B5M 21.47GVNEOCPI52
     CAD8PW2 KC2024 04 11.19769310 40 59.045-18 57 00.14   ~4B5M 20.89GVNEOCPI52
     CAD8PW2 KC2024 04 11.20151310 40 56.856-18 57 06.44   ~4B5M 22.20GVNEOCPI52
     CAD8PW2 KC2024 04 12.24359710 31 02.356-19 20 16.37   ~4C6b 20.52GVNEOCPI52
     CAD8PW2 KC2024 04 12.24900910 30 59.242-19 20 22.42   ~4C6b 20.88GVNEOCPI52
     CAD8PW2 KC2024 04 12.25441010 30 56.164-19 20 28.64   ~4C6b 21.40GVNEOCPI52
     CAD8PW2 KC2024 04 12.25981310 30 53.104-19 20 35.63   ~4C6b 21.22GVNEOCPI52
     CAD8PW2 KC2024 04 14.16587810 13 19.218-19 56 30.48   ~4E4q 21.26GVNEOCPI52
     CAD8PW2 KC2024 04 14.17130710 13 16.273-19 56 35.70   ~4E4q 21.37GVNEOCPI52
     CAD8PW2 KC2024 04 14.17674010 13 13.282-19 56 41.17   ~4E4q 21.11GVNEOCPI52
     CAD8PW2 KC2024 04 14.18217210 13 10.312-19 56 46.03   ~4E4q 21.54GVNEOCPI52
     CAD8PW2  C2024 04 16.26075709 55 00.740-20 26 55.37   ~5917 21.58GVNEOCPF52
     CAD8PW2  C2024 04 16.27182809 54 55.062-20 27 03.16   ~5917 21.25GVNEOCPF52
     CAD8PW2  C2024 04 16.29422509 54 43.634-20 27 19.88   ~5917 22.31GVNEOCPF52
     CAD8PW2 1C2024 05 28.34859 07 14 16.21 -20 56 41.5    ~5SMM       VNEOCPQ62
     CAD8PW2 1C2024 05 28.35879 07 14 15.35 -20 56 41.7    ~5SMM 20.7 GVNEOCPQ62

Station data:
(807) Cerro Tololo Observatory, La Serena  (S30.169133 W70.805900)  Chile.
   Observer R. Holmes. 0.61-m f/6.5 astrograph + CCD.
(F52) Pan-STARRS 2, Haleakala  (N20.707382 W156.255910)  US/Hawaii.
   Observers J. Bulger, T. Dukes, T. Lowe, A. Schultz, M. Willman. Measurers
   K. Chambers, S. Chastel, T. de Boer, L. Denneau, J. Fairlamb, H.
   Flewelling, M. Huber, C.-C. Lin, E. Magnier, Y. Ramanjooloo, R. Wainscoat,
   R. Weryk. 1.8-m Ritchey-Chrétien + CCD.
(G96) Mt. Lemmon Survey  (N32.442729 W110.788720)  US/Arizona.  Observer E.
   J. Christensen. 1.5-m reflector + 10K CCD.
(H01) Magdalena Ridge Observatory, Socorro  (N33.984833 W107.189333)  US/New
   Mexico.  Observers W. H. Ryan, E. V. Ryan. Measurer W. H. Ryan. 2.4-m
   f/8.9 reflector + CCD.
(I41) Palomar Mountain--ZTF  (N33.357336 W116.859780)  US/California.
   Observers B. T. Bolin, Z. T. F. Collaboration. Measurers B. T. Bolin,
   Z.-Y. Lin, F. J. Masci. 1.2-m f/2.4 Schmidt.
(I52) Steward Observatory, Mt. Lemmon Station  (N32.442570 W110.788920)
   US/Arizona.  Observers T. A. Pruyne, B. M. Africano, E. J. Christensen, G.
   A. Farneth, D. C. Fuls, A. R. Gibbs, A. D. Grauer, H. Gröller, J. A.
   Johnson, R. A. Kowalski, S. M. Larson, G. J. Leonard, D. Rankin, R. L.
   Seaman, F. C. Shelly, K. W. Wierzchoś. 1.0-m prime focus + CCD.
(L01) Višnjan Observatory, Tičan  (N45.290897 E13.749300)  Croatia.
   Observers K. Korlević, D. Pujagic, V. Dobos. Measurers D. Pujagic, K.
   Korlević. 1.0-m f/2.9 reflector + CCD.
(Q62) iTelescope Observatory, Siding Spring  (S31.273286 E149.064420)
   Australia/NSW.  Observer H. Sato. 0.51-m f/6.8 astrograph + CCD + f/4.5
   focal reducer0.43-m f/6.8 astrograph + CCD + focal reducer0.43-m f/6.8
   astrograph + CCD0.10-m f/5 astrograph + CCD0.127-m f/5.6 refractor +
   CCD0.50-m f/6.8 reflector + CCD0.30-m f/9 reflector + CCD.

Orbital elements:  CAD8PW2
   Perihelion 2024 Jun 15.65163 +/- 0.0568 TT = 15:38:20 (JD 2460477.15163)
Epoch 2024 May 28.0 TT = JDT 2460458.5   Earth MOID: 0.5723   Ju: 0.9007
M 359.98696156 +/- 0.0029           Ma: 0.0929                   AutoNEOCP
n   0.00069905 +/- 0.000156         Peri.  249.20378 +/- 0.056
a 125.737144 +/- 18.7               Node    11.24556 +/- 0.0016
e   0.9906800 +/- 0.00138           Incl.   97.39123 +/- 0.023
P1409.92298                H 20.34  G  0.15   U  6.9
q 1.17186533 +/- 0.000592    Q 250.302423 +/- 37.4        (J2000 ecliptic)
From 52 observations 2024 Apr. 3-May 28; mean residual 0".31
Residuals in arcseconds: 
240403 I41  .21+  .07+    240405 H01  .33-  .13-    240411 I52  .60+  .45+    
240403 F52  .40+  .23+    240405 H01  .62-  .13+    240411 I52  .08+  .59+    
240403 F52  .05-  .13-    240405 H01  .35-  .06-    240411 I52  .48+  .34-    
240404 G96  .15+  .50+    240405 H01  .28-  .20-    240412 I52  .17+  .94-    
240404 G96  .18-  .27-    240406 807  .15-  .45-    240412 I52  .27-  .22-    
240404 G96  .30-  .10+    240406 807  .23+  .09+    240412 I52  .29-  .32+    
240404 G96  .34-  .39+    240406 807  .40-  .28-    240412 I52  .05-  .08+    
240404 I52  .45-  .58-    240406 L01  .36+  .41+    240414 I52  .04+  .45-    
240404 I52  .28-  .24+    240406 L01  .29+  .37+    240414 I52  .28+  .22-    
240404 I52  .39-  .34-    240406 L01  .24+  .33+    240414 I52  .11-  .25-    
240404 I52  .35-  .22-    240407 I41  .43+  .05-    240414 I52  .22-  .33+    
240405 807  .18-  .27-    240408 H01  .02+  .15+    240416 F52  .25-  .28-    
240405 807  .28-  .22-    240408 H01  .00   .03-    240416 F52  .25-  .21+    
240405 807  .28-  .01-    240408 H01  .02+  .03-    240416 F52  .49+  .13+    
240405 I52  .53-  .73+    240408 H01  .01+  .05+    240528 Q62  .01+  .00     
240405 I52  .17-  .39-    240409 Q62  .16-  .03-    240528 Q62  .01-  .14+    
240405 I52  .11-  .17-    240409 Q62  .27+  .47-    
240405 I52  .01-  .07-    240411 I52  .30-  .38-    

Ephemerides (geocentric):
Date (UTC) HH   RA             Dec           delta  r     elong  mag " sig PA
---- --------  ------------   ------------  ------ ------ -----  --- --------
2024 08 16 06  05 56 37.289   -29 09 48.26  1.5286 1.5088  69.5 23.7 69.8 144
2024 08 16 07  05 56 33.219   -29 10 24.96  1.5283 1.5092  69.5 23.7 69.9 144
2024 08 16 08  05 56 29.143   -29 11 01.68  1.5279 1.5096  69.6 23.7 69.9 144
2024 08 16 09  05 56 25.062   -29 11 38.43  1.5276 1.5100  69.6 23.7 70.0 144
2024 08 16 10  05 56 20.975   -29 12 15.21  1.5272 1.5104  69.6 23.7 70.0 144
2024 08 16 11  05 56 16.883   -29 12 52.03  1.5269 1.5108  69.7 23.7 70.1 144
2024 08 16 12  05 56 12.784   -29 13 28.87  1.5266 1.5112  69.7 23.7 70.2 144
2024 08 16 13  05 56 08.681   -29 14 05.74  1.5262 1.5116  69.8 23.7 70.2 144
2024 08 16 14  05 56 04.571   -29 14 42.65  1.5259 1.5120  69.8 23.7 70.3 144
2024 08 16 15  05 56 00.456   -29 15 19.58  1.5255 1.5123  69.8 23.7 70.4 144
2024 08 16 16  05 55 56.336   -29 15 56.55  1.5252 1.5127  69.9 23.7 70.4 144
2024 08 16 17  05 55 52.210   -29 16 33.54  1.5249 1.5131  69.9 23.7 70.5 144
2024 08 16 18  05 55 48.078   -29 17 10.57  1.5245 1.5135  69.9 23.7 70.5 144
2024 08 16 19  05 55 43.940   -29 17 47.62  1.5242 1.5139  70.0 23.7 70.6 144
2024 08 16 20  05 55 39.797   -29 18 24.71  1.5238 1.5143  70.0 23.7 70.7 144
2024 08 16 21  05 55 35.648   -29 19 01.82  1.5235 1.5147  70.1 23.7 70.7 144
2024 08 16 22  05 55 31.494   -29 19 38.97  1.5231 1.5151  70.1 23.7 70.8 144
2024 08 16 23  05 55 27.333   -29 20 16.14  1.5228 1.5155  70.1 23.7 70.9 144
2024 08 17 00  05 55 23.167   -29 20 53.35  1.5224 1.5158  70.2 23.7 70.9 144
2024 08 17 01  05 55 18.996   -29 21 30.59  1.5221 1.5162  70.2 23.7 71.0 144
